Regional Weather Roundup
Issued by NWS

Home | Current Version | Previous Version | Graphics & Text | Print | Product List | Glossary On
Versions: 1 2 3 4 5 6 7 8 9 10 11 12 13 14 15 16 17 18 19 20 21 22 23 24 25 26 27 28 29 30 31 32 33 34 35 36 37 38 39 40 41 42 43 44 45 46 47 48 49 50
000
ASUS43 KFSD 260610
RWRSD

WEATHER ROUNDUP FOR SOUTH DAKOTA
NATIONAL WEATHER SERVICE SIOUX FALLS SD
100 AM CDT SAT MAY 26 2018

NOTE: "FAIR" INDICATES FEW OR NO CLOUDS BELOW 12,000 FEET WITH NO
SIGNIFICANT WEATHER AND/OR OBSTRUCTIONS TO VISIBILITY.


SDZ001>005-009-010-012>017-260700-
NORTHWEST AND NORTH CENTRAL SOUTH DAKOTA

CITY           SKY/WX    TMP DP  RH WIND       PRES   REMARKS
BUFFALO          N/A     65  47  52 NW7       29.79
FAITH            N/A     68  52  56 W5        29.83S
MOBRIDGE       CLEAR     64  56  75 N7        29.74R
$$

SDZ012>016-024>037-041>051-057-063-072>074-260700-
SOUTHWEST AND SOUTH CENTRAL SOUTH DAKOTA

CITY           SKY/WX    TMP DP  RH WIND       PRES   REMARKS
RAPID CTY ARPT CLEAR     59  55  87 NW5       29.88S
PIERRE         CLEAR     68  61  78 SW7       29.77S
CUSTER         CLEAR     55  50  83 NW5       30.03S
ELLSWORTH AFB  CLEAR     64  59  82 W3        29.88R
PHILIP         CLEAR     61  61 100 W6        29.82R
PINE RIDGE     CLEAR     57  54  89 NE7       29.89F
SPEARFISH      FAIR      59  54  82 CALM      29.92S
WINNER         FAIR      66  58  75 SW6       29.82S
$$

SDZ004>011-016>023-039-040-260700-
NORTHEAST SOUTH DAKOTA

CITY           SKY/WX    TMP DP  RH WIND       PRES   REMARKS
ABERDEEN       CLEAR     65  56  72 SW7       29.71S
WATERTOWN      CLEAR     63  55  75 SW6       29.74S
BROOKINGS      CLEAR     68  55  63 CALM      29.76S
SISSETON         N/A     77  51  40 W14       29.66S
$$

SDZ017-020-022-023-036>040-048>070-260700-
SOUTHEAST SOUTH DAKOTA

CITY           SKY/WX    TMP DP  RH WIND       PRES   REMARKS
SIOUX FALLS    CLEAR     66  60  81 SW3       29.76R
HURON          CLEAR     66  57  72 CALM      29.74S
CHAMBERLAIN    CLEAR     67  62  85 CALM      29.79S
MITCHELL       CLEAR     68  59  73 W6        29.76R
YANKTON        CLEAR     70  62  76 CALM      29.77S
$$

ABBREVIATIONS USED IN REMARKS
   TC - TEMPERATURE IN CELSIUS
  WCI - WIND CHILL INDEX
   HX - HEAT INDEX
  VSB - VISIBILITY




USA.gov is the U.S. government's official web portal to all federal, state and local government web resources and services.